Middlebury State AP, Middlebu, VT

10:03 AM EDT on September 21, 2019 (GMT -0400)
Middlebury State AP, Middlebu

Weather History for K6B0 - July, 2019

Change the Weather History Date:

Wednesday, July 24, 2019

  Actual Average (KRUT) Record (KRUT)
Temperature  
Mean Temperature 64 °F -  
Max Temperature 76 °F 82 °F 90 °F (1970)
Min Temperature 54 °F 56 °F 42 °F (1985)
Growing Degree Days 14 (Base 50)    
Moisture  
Dew Point 56 °F    
Average Humidity 73    
Maximum Humidity 99    
Minimum Humidity 45    
Precipitation  
Precipitation 0.00 in - - ()
Sea Level Pressure  
Sea Level Pressure 29.99 in    
Wind  
Wind Speed 2 mph (North)    
Max Wind Speed 10 mph    
Max Gust Speed 17 mph    
Visibility 10 miles    
Events      
Averages and records for this station are not official NWS values.
T = Trace of Precipitation, MM = Missing Value Source: NWS Daily Summary

Daily Weather History Graph

Daily Weather History Graph

Search for Another Location

Airport or City:

Astronomy

Jul. 24, 2019 Rise Set
Actual Time 5:31 AM EDT 8:25 PM EDT
Civil Twilight 4:57 AM EDT 8:59 PM EDT
Nautical Twilight 4:14 AM EDT 9:42 PM EDT
Astronomical Twilight 3:24 AM EDT 10:32 PM EDT
Moon No Moon Rise 12:54 PM EDT (7/24)
Length of Visible Light 16h 01m
Length of Day
14h 53m
Waning Gibbous, 54% of the Moon is Illuminated
Jul 24
Waning Gibbous
Jul 24
Last Quarter
Jul 31
New
Aug 7
First Quarter
Aug 15
Full

Hourly Weather History & Observations

Time (EDT) Temp. Dew Point Humidity Pressure Visibility Wind Dir Wind Speed Gust Speed Precip Events Conditions
12:15 AM 60.6 °F 57.7 °F 90% 29.93 in 10.0 mi Calm Calm - N/A   Scattered Clouds
12:35 AM 60.8 °F 58.3 °F 91% 29.93 in 10.0 mi Calm Calm - N/A   Overcast
12:36 AM 60.8 °F 58.3 °F 91% 29.93 in 10.0 mi Calm Calm - N/A   Overcast
12:55 AM 61.0 °F 57.9 °F 90% 29.94 in 10.0 mi Calm Calm - N/A   Overcast
12:59 AM 61.2 °F 58.3 °F 90% 29.94 in 10.0 mi Calm Calm - N/A   Overcast
1:17 AM 61.2 °F 59.0 °F 93% 29.94 in 10.0 mi Calm Calm - N/A   Overcast
1:36 AM 60.8 °F 57.9 °F 90% 29.95 in 10.0 mi Calm Calm - N/A   Overcast
1:55 AM 60.4 °F 57.7 °F 91% 29.94 in 10.0 mi Calm Calm - N/A   Mostly Cloudy
1:56 AM 60.4 °F 57.7 °F 91% 29.94 in 10.0 mi Calm Calm - N/A   Mostly Cloudy
2:15 AM 59.9 °F 57.7 °F 93% 29.94 in 10.0 mi Calm Calm - N/A   Mostly Cloudy
2:16 AM 59.9 °F 57.6 °F 92% 29.94 in 10.0 mi Calm Calm - N/A   Mostly Cloudy
2:38 AM 59.9 °F 58.1 °F 94% 29.94 in 10.0 mi Calm Calm - N/A   Overcast
2:56 AM 60.4 °F 58.6 °F 94% 29.94 in 10.0 mi Calm Calm - N/A   Overcast
3:16 AM 60.1 °F 58.6 °F 95% 29.94 in 10.0 mi Calm Calm - N/A   Mostly Cloudy
3:35 AM 59.4 °F 57.4 °F 93% 29.94 in 10.0 mi Calm Calm - N/A   Scattered Clouds
3:36 AM 59.2 °F 57.4 °F 94% 29.94 in 10.0 mi Calm Calm - N/A   Scattered Clouds
3:55 AM 58.5 °F 57.2 °F 96% 29.94 in 10.0 mi Calm Calm - N/A   Clear
4:18 AM 57.9 °F 56.8 °F 96% 29.94 in 10.0 mi Calm Calm - N/A   Clear
4:35 AM 57.2 °F 56.1 °F 96% 29.95 in 10.0 mi Calm Calm - N/A   Clear
4:55 AM 56.8 °F 56.1 °F 97% 29.95 in 10.0 mi Calm Calm - N/A   Clear
4:56 AM 56.7 °F 55.9 °F 97% 29.95 in 10.0 mi Calm Calm - N/A   Clear
5:15 AM 56.3 °F 55.8 °F 98% 29.96 in 10.0 mi Calm Calm - N/A   Clear
5:16 AM 56.3 °F 55.6 °F 97% 29.96 in 10.0 mi Calm Calm - N/A   Clear
5:38 AM 55.6 °F 54.9 °F 97% 29.97 in 10.0 mi Calm Calm - N/A   Clear
5:56 AM 54.9 °F 54.3 °F 98% 29.98 in 10.0 mi Calm Calm - N/A   Clear
6:16 AM 54.9 °F 54.5 °F 99% 29.99 in 10.0 mi Calm Calm - N/A   Clear
6:35 AM 55.8 °F 55.4 °F 99% 29.99 in 10.0 mi Calm Calm - N/A   Clear
6:36 AM 55.8 °F 55.4 °F 99% 29.99 in 10.0 mi Calm Calm - N/A   Clear
6:55 AM 56.5 °F 55.6 °F 97% 29.99 in 10.0 mi Calm Calm - N/A   Clear
6:59 AM 56.8 °F 55.8 °F 96% 29.99 in 10.0 mi Calm Calm - N/A   Clear
7:18 AM 58.1 °F 56.3 °F 94% 30.00 in 10.0 mi Calm Calm - N/A   Clear
7:36 AM 59.5 °F 56.7 °F 90% 30.00 in 10.0 mi Calm Calm - N/A   Clear
7:55 AM 61.7 °F 57.6 °F 86% 30.01 in 10.0 mi Calm Calm - N/A   Clear
7:56 AM 61.7 °F 57.6 °F 86% 30.01 in 10.0 mi Calm Calm - N/A   Clear
8:15 AM 63.1 °F 57.2 °F 81% 30.02 in 10.0 mi Calm Calm - N/A   Clear
8:16 AM 63.1 °F 56.8 °F 80% 30.02 in 10.0 mi NNE 3.5 mph - N/A   Clear
8:38 AM 63.7 °F 56.7 °F 78% 30.01 in 10.0 mi Calm Calm - N/A   Clear
8:56 AM 64.9 °F 57.4 °F 76% 30.02 in 10.0 mi NNE 3.5 mph - N/A   Clear
9:16 AM 66.2 °F 57.6 °F 74% 30.01 in 10.0 mi Calm Calm - N/A   Clear
9:35 AM 67.8 °F 57.2 °F 69% 30.01 in 10.0 mi NNE 3.5 mph - N/A   Clear
9:36 AM 68.0 °F 57.2 °F 68% 30.01 in 10.0 mi NNE 3.5 mph - N/A   Clear
9:55 AM 69.6 °F 57.0 °F 64% 30.01 in 10.0 mi North 8.1 mph - N/A   Clear
9:59 AM 69.4 °F 55.8 °F 62% 30.01 in 10.0 mi North 6.9 mph - N/A   Clear
10:17 AM 69.8 °F 54.3 °F 58% 30.01 in 10.0 mi North 6.9 mph - N/A   Clear
10:35 AM 70.5 °F 53.4 °F 55% 30.01 in 10.0 mi North 8.1 mph - N/A   Clear
10:55 AM 70.9 °F 54.5 °F 56% 30.01 in 10.0 mi North 8.1 mph - N/A   Clear
10:56 AM 71.1 °F 54.0 °F 55% 30.01 in 10.0 mi North 8.1 mph - N/A   Clear
11:15 AM 71.2 °F 53.8 °F 54% 30.01 in 10.0 mi NNE 8.1 mph - N/A   Clear
11:35 AM 71.6 °F 53.6 °F 53% 30.00 in 10.0 mi NNW 5.8 mph - N/A   Clear
11:39 AM 71.8 °F 53.6 °F 53% 30.00 in 10.0 mi North 8.1 mph - N/A   Clear
11:57 AM 72.9 °F 55.4 °F 54% 30.00 in 10.0 mi NNE 9.2 mph - N/A   Scattered Clouds
12:15 PM 73.6 °F 53.4 °F 49% 30.00 in 10.0 mi NNW 5.8 mph - N/A   Scattered Clouds
12:35 PM 73.2 °F 53.1 °F 49% 29.99 in 10.0 mi North 9.2 mph - N/A   Clear
12:36 PM 73.2 °F 53.1 °F 49% 29.99 in 10.0 mi North 10.4 mph - N/A   Clear
12:55 PM 73.6 °F 54.3 °F 51% 29.99 in 10.0 mi North 8.1 mph - N/A   Clear
1:19 PM 73.8 °F 53.1 °F 48% 29.99 in 10.0 mi North 6.9 mph - N/A   Clear
1:36 PM 74.7 °F 53.4 °F 47% 29.99 in 10.0 mi NNW 9.2 mph - N/A   Clear
1:56 PM 74.3 °F 52.7 °F 47% 29.98 in 10.0 mi North 8.1 mph 17.3 mph N/A   Clear
2:15 PM 74.5 °F 52.3 °F 46% 29.98 in 10.0 mi North 8.1 mph 16.1 mph N/A   Clear
2:16 PM 74.7 °F 53.1 °F 47% 29.98 in 10.0 mi North 10.4 mph 16.1 mph N/A   Clear
2:35 PM 75.4 °F 53.1 °F 46% 29.97 in 10.0 mi NW 6.9 mph - N/A   Clear
2:39 PM 75.9 °F 53.4 °F 45% 29.97 in 10.0 mi North 3.5 mph - N/A   Clear
2:57 PM 75.2 °F 53.6 °F 47% 29.97 in 10.0 mi North 8.1 mph 17.3 mph N/A   Scattered Clouds
3:15 PM 75.9 °F 54.0 °F 46% 29.97 in 10.0 mi North 8.1 mph - N/A   Scattered Clouds
3:35 PM 74.5 °F 53.6 °F 48% 29.97 in 10.0 mi NE 4.6 mph 16.1 mph N/A   Scattered Clouds
3:36 PM 74.3 °F 54.0 °F 49% 29.97 in 10.0 mi NNE 4.6 mph 16.1 mph N/A   Scattered Clouds
3:55 PM 74.7 °F 54.1 °F 49% 29.97 in 10.0 mi North 8.1 mph - N/A   Scattered Clouds
3:56 PM 74.8 °F 54.0 °F 48% 29.97 in 10.0 mi North 8.1 mph - N/A   Scattered Clouds
4:19 PM 75.2 °F 53.6 °F 47% 29.97 in 10.0 mi North 9.2 mph - N/A   Scattered Clouds
4:37 PM 75.2 °F 54.5 °F 48% 29.97 in 10.0 mi North 8.1 mph - N/A   Scattered Clouds
4:56 PM 74.8 °F 54.0 °F 48% 29.97 in 10.0 mi North 6.9 mph - N/A   Scattered Clouds
5:15 PM 74.7 °F 52.9 °F 46% 29.97 in 10.0 mi North 6.9 mph - N/A   Clear
5:16 PM 74.5 °F 53.2 °F 47% 29.97 in 10.0 mi North 5.8 mph - N/A   Clear
5:35 PM 74.5 °F 53.8 °F 48% 29.97 in 10.0 mi North 4.6 mph - N/A   Clear
5:57 PM 74.1 °F 55.0 °F 51% 29.98 in 10.0 mi North 8.1 mph - N/A   Clear
6:15 PM 73.4 °F 54.5 °F 51% 29.98 in 10.0 mi North 6.9 mph - N/A   Clear
6:35 PM 72.7 °F 54.9 °F 53% 29.98 in 10.0 mi North 5.8 mph - N/A   Clear
6:36 PM 72.5 °F 55.2 °F 54% 29.98 in 10.0 mi North 6.9 mph - N/A   Clear
6:55 PM 72.5 °F 55.2 °F 54% 29.98 in 10.0 mi North 3.5 mph - N/A   Clear
6:56 PM 72.3 °F 55.2 °F 55% 29.99 in 10.0 mi North 3.5 mph - N/A   Clear
7:18 PM 70.3 °F 55.8 °F 60% 29.99 in 10.0 mi Calm Calm - N/A   Clear
7:37 PM 68.9 °F 57.7 °F 68% 29.99 in 10.0 mi Calm Calm - N/A   Clear
7:55 PM 66.7 °F 59.2 °F 77% 30.00 in 10.0 mi Calm Calm - N/A   Clear
7:56 PM 66.6 °F 59.0 °F 77% 30.00 in 10.0 mi Calm Calm - N/A   Clear
8:15 PM 64.9 °F 58.1 °F 78% 30.00 in 10.0 mi Calm Calm - N/A   Clear
8:35 PM 63.5 °F 57.7 °F 81% 30.01 in 10.0 mi Calm Calm - N/A   Clear
8:39 PM 63.7 °F 57.4 °F 80% 30.01 in 10.0 mi Calm Calm - N/A   Clear
8:57 PM 62.8 °F 56.5 °F 80% 30.02 in 10.0 mi Calm Calm - N/A   Clear
9:15 PM 61.7 °F 55.9 °F 81% 30.02 in 10.0 mi Calm Calm - N/A   Clear
9:35 PM 60.8 °F 55.8 °F 83% 30.03 in 10.0 mi Calm Calm - N/A   Clear
9:36 PM 60.8 °F 55.6 °F 83% 30.03 in 10.0 mi Calm Calm - N/A   Clear
9:55 PM 61.2 °F 55.2 °F 81% 30.03 in 10.0 mi Calm Calm - N/A   Clear
9:56 PM 61.2 °F 55.2 °F 81% 30.03 in 10.0 mi Calm Calm - N/A   Clear
10:18 PM 60.8 °F 55.0 °F 81% 30.04 in 10.0 mi Calm Calm - N/A   Clear
10:36 PM 59.7 °F 55.4 °F 86% 30.04 in 10.0 mi Calm Calm - N/A   Clear
10:56 PM 59.4 °F 55.0 °F 86% 30.04 in 10.0 mi Calm Calm - N/A   Clear
11:15 PM 59.0 °F 55.0 °F 87% 30.05 in 10.0 mi Calm Calm - N/A   Clear
11:16 PM 59.0 °F 55.0 °F 87% 30.05 in 10.0 mi Calm Calm - N/A   Clear
11:35 PM 59.2 °F 54.7 °F 85% 30.05 in 10.0 mi Calm Calm - N/A   Clear
11:57 PM 58.1 °F 55.0 °F 90% 30.05 in 10.0 mi Calm Calm - N/A   Scattered Clouds